Regional Weather Roundup
Issued by NWS

Home | Current Version | Previous Version | Graphics & Text | Print | Product List | Glossary On
Versions: 1 2 3 4 5 6 7 8 9 10 11 12 13 14 15 16 17 18 19 20 21 22 23 24 25 26 27 28
000
ASUS43 KDMX 220007
RWRIA

WEATHER ROUNDUP FOR IOWA
NATIONAL WEATHER SERVICE DES MOINES IA
700 PM CDT TUE OCT 21 2014

NOTE: "FAIR" INDICATES FEW OR NO CLOUDS BELOW 12,000 FEET WITH NO
SIGNIFICANT WEATHER AND/OR OBSTRUCTIONS TO VISIBILITY.

* - THESE STATIONS ARE NOT NWS STATIONS...THUS NOT UNDER NWS
QUALITY CONTROL.  THEY ALSO DO NOT REPORT WEATHER SUCH
AS PRECIPITATION OR FOG.

IAZ001>003-012>014-020>022-031>034-043>046-220100-
   NORTHWEST IOWA

CITY           SKY/WX    TMP DP  RH WIND       PRES   REMARKS
CARROLL *      CLEAR     55  45  67 SE8       30.08R
CHEROKEE *     CLEAR     61  42  49 SE7       30.04S
DENISON *      CLEAR     61  41  48 SE7       30.04R
LE MARS *      CLEAR     64  43  45 SE10      30.01S
ORANGE CITY *  CLEAR     66  39  37 SE5       30.02S
SHELDON *      CLEAR     63  43  48 SE10      30.02S
SIOUX CITY     CLEAR     67  42  40 SE8       30.01S
6HR MIN TEMP:  67; 6HR MAX TEMP:  77;

SPENCER        CLEAR     60  42  51 SE13      30.06S
6HR MIN TEMP:  59; 6HR MAX TEMP:  70;

STORM LAKE *   CLEAR     59  43  55 SE9       30.07S
$$

IAZ055>058-069>071-079>083-090>094-220100-
   SOUTHWEST IOWA

CITY           SKY/WX    TMP DP  RH WIND       PRES   REMARKS
ATLANTIC *     CLEAR     63  41  45 E7        30.06S
AUDUBON *      CLEAR     55  41  58 E6        30.09S
CLARINDA *     CLEAR     59  43  55 E3        30.08S
COUNCIL BLFS * CLEAR     61  39  44 SE8       30.04R
CRESTON *      CLEAR     57  45  62 E9        30.10R
HARLAN  *      CLEAR     63  41  45 SE7       30.09S
LAMONI         CLEAR     60  46  59 E7        30.10S
6HR MIN TEMP:  60; 6HR MAX TEMP:  71;

RED OAK *      CLEAR     63  41  45 SE7       30.06S
SHENANDOAH *   CLEAR     61  41  48 E7        30.06S
$$

IAZ047>049-059>061-072>074-084-220100-
   CENTRAL IOWA

CITY           SKY/WX    TMP DP  RH WIND       PRES   REMARKS
AMES           CLEAR     53  40  61 SE5       30.13R
6HR MIN TEMP:  53; 6HR MAX TEMP:  65;

ANKENY *       CLEAR     55  43  62 E7        30.13R
CHARITON *     CLEAR     55  45  67 E6        30.13R
DES MOINES     CLEAR     60  43  53 E10       30.13R
6HR MIN TEMP:  60; 6HR MAX TEMP:  67;

GRINNELL*      CLEAR     52  40  65 E6        30.16S
KNOXVILLE *    CLEAR     57  41  54 E7        30.13R
MARSHALLTOWN   CLEAR     52  40  63 E6        30.15R
6HR MIN TEMP:  51; 6HR MAX TEMP:  62;

PELLA *        CLEAR     56  42  59 E5        30.16R
PERRY *          N/A     55  43  62 E6        30.11R
$$

IAZ004>006-015-016-023>025-035-036-220100-
   NORTH CENTRAL IOWA

CITY           SKY/WX    TMP DP  RH WIND       PRES   REMARKS
ALGONA *       CLEAR     57  41  54 SE8G14    30.11R
CLARION *      CLEAR     55  41  58 SE9       30.12S
ESTHERVILLE    CLEAR     56  41  57 SE13      30.08S
6HR MIN TEMP:  56; 6HR MAX TEMP:  66;

FORT DODGE *   CLEAR     57  41  54 SE7       30.12R
MASON CITY     CLEAR     52  40  63 SE8       30.16R
6HR MIN TEMP:  52; 6HR MAX TEMP:  62;

FOREST CITY *  CLEAR     52  41  66 SE7       30.13S
IOWA FALLS *     N/A     50  39  66 E6        30.16R
$$

IAZ007>011-017>019-026>030-037>042-050>054-066-220100-
   NORTHEAST IOWA

CITY           SKY/WX    TMP DP  RH WIND       PRES   REMARKS
CEDAR RAPIDS   CLEAR     50  38  63 E7        30.17R
6HR MIN TEMP:  50; 6HR MAX TEMP:  60;

CHARLES CITY * CLEAR     50  39  66 SE6       30.17R
CLINTON *      CLEAR     45  36  70 NE6       30.24R
DECORAH *      CLEAR     48  37  66 SE5       30.18R
DUBUQUE        CLEAR     46  38  73 E9        30.22R
6HR MIN TEMP:  46; 6HR MAX TEMP:  56;

MONTICELLO *   CLEAR     48  37  66 E5        30.19S
OELWEIN *      CLEAR     50  39  66 E8        30.19R
WATERLOO       CLEAR     50  38  63 SE8       30.17R
6HR MIN TEMP:  49; 6HR MAX TEMP:  60;

$$

IAZ064-065-067-068-078-220100-
   EAST CENTRAL IOWA

CITY           SKY/WX    TMP DP  RH WIND       PRES   REMARKS
DAVENPORT      CLEAR     48  36  63 E7        30.20R
6HR MIN TEMP:  48; 6HR MAX TEMP:  58;

IOWA CITY      CLEAR     54  38  54 E6        30.19R
6HR MIN TEMP:  53; 6HR MAX TEMP:  61;

MT. PLEASANT * CLEAR     49  39  68 NE6       30.18R
MUSCATINE *    CLEAR     54  39  58 E6        30.19R
QUAD CITIES    CLEAR     47  37  68 E5        30.20R
6HR MIN TEMP:  46; 6HR MAX TEMP:  59;

$$

IAZ062-063-075>077-085>089-095>099-220100-
   SOUTHEAST IOWA

CITY           SKY/WX    TMP DP  RH WIND       PRES   REMARKS
BURLINGTON     CLEAR     54  39  57 E6        30.17R
6HR MIN TEMP:  54; 6HR MAX TEMP:  61;

FAIRFIELD *    CLEAR     52  39  62 E7        30.17R
FORT MADISON * CLEAR     54  43  66 E3        30.18R
KEOKUK *       CLEAR     54  41  62 NE6       30.16R
OSKALOOSA *      N/A     51  41  67 E7        30.16R
CENTERVILLE *  CLEAR     50  45  81 E5        30.15S
WASHINGTON *   CLEAR     48  39  71 E6        30.18R
$$

ABBREVIATIONS USED IN REMARKS
   TC - TEMPERATURES IN CELSIUS
  WCI - WIND CHILL INDEX
   HX - HEAT INDEX
  VSB - VISIBILITY
$$




USA.gov is the U.S. government's official web portal to all federal, state and local government web resources and services.